Regional Weather Roundup
Issued by NWS

Home | Current Version | Previous Version | Text Only | Print | Product List | Glossary On
Versions: 1 2 3 4 5 6 7 8 9 10 11 12 13 14 15 16 17 18 19 20 21 22 23 24 25 26 27 28 29 30 31 32 33 34 35 36 37 38 39 40 41 42 43 44 45 46 47 48 49 50
000
ASUS43 KDTX 050901
RWRMI
MICHIGAN HOURLY REGIONAL WEATHER ROUNDUP
NATIONAL WEATHER SERVICE DETROIT/PONTIAC MI
400 AM EST MON DEC 05 2016

NOTE: "FAIR" INDICATES FEW OR NO CLOUDS BELOW 12,000 FEET WITH NO
SIGNIFICANT WEATHER AND/OR OBSTRUCTION TO VISIBILITY.

MIZ047>049-052>055-059>063-066>070-074>076-081>083-051000-
SOUTHEAST LOWER MICHIGAN

CITY           SKY/WX    TMP DP  RH WIND       PRES   REMARKS
ADRIAN         CLOUDY    34  33  96 W7        29.94R WCI  28
ALMA           CLOUDY    33  32  99 W7        29.86S FOG     WCI  26
ANN ARBOR      CLOUDY    33  32  96 SW8       29.91R WCI  26
BAD AXE        CLOUDY    32  32 100 W10       29.84R WCI  24
CARO           CLOUDY    32  32  99 SW6       29.85R FOG     WCI  27
DETROIT CITY   CLOUDY    35  33  92 W8G18     29.90R WCI  29
DETROIT        CLOUDY    35  32  88 W8        29.93R FOG     WCI  29
FLINT          CLOUDY    33  31  92 W9        29.88R WCI  25
GROSSE ILE     CLOUDY    35  32  90 W8        29.91R WCI  28
HILLSDALE      CLOUDY    32  32 100 W13G18    29.91R WCI  22
HOWELL         CLOUDY    33  32  95 W8        29.88R WCI  26

CITY           SKY/WX    TMP DP  RH WIND       PRES   REMARKS
JACKSON        CLOUDY    34  31  88 W12       29.91R WCI  25
LAMBERTVILLE   CLOUDY    37  32  84 W7        29.95R WCI  31
LANSING        CLOUDY    34  31  88 W13       29.89R WCI  25
LAPEER         NOT AVBL
MASON          CLOUDY    33  32  97 SW5       29.90R WCI  28
MONROE         CLOUDY    35  32  90 W12       29.92R WCI  27
MT. CLEMENS    PTCLDY    34  32  92 W8        29.86R WCI  28
PONTIAC        CLOUDY    33  30  88 W9        29.86R WCI  25
PORT HOPE        N/A     34  32  92 SW9       29.80R WCI  27
PORT HURON     CLOUDY    34  32  93 W6        29.86R WCI  29
TRI CITIES     CLOUDY    33  32  96 SW10      29.86S FOG     WCI  25
MIDLAND        CLOUDY    33  32  96 SW6       29.84S FOG     WCI  27
TROY           CLOUDY    35  32  89 W9        29.90R WCI  28
SAGINAW HB     CLOUDY    32  32 100 SW5       29.86R FOG     WCI  27
$$
MIZ043>046-050>051-056>058-064>065-071>073-077>080-051000-
SOUTHWEST LOWER MICHIGAN

CITY           SKY/WX    TMP DP  RH WIND       PRES   REMARKS
BATTLE CREEK   CLOUDY    34  33  96 W10       29.92R WCI  26
BENTON HARBOR  CLOUDY    37  31  78 W15       29.96R WCI  28
BIG RAPIDS     CLOUDY    35  31  85 W13       29.84R WCI  26
COLDWATER      CLOUDY    34  33  95 W10       29.94R WCI  26
FREMONT        CLOUDY    33  29  85 W6        29.88R WCI  28
HOLLAND        CLOUDY    37  31  78 W18G24    29.92R WCI  27
GRAND RAPIDS   CLOUDY    34  31  88 W13       29.90R WCI  25
IONIA          CLOUDY    33  32  96 SW12      29.88R WCI  24
KALAMAZOO      CLOUDY    35  31  85 W10       29.92S WCI  27
LUDINGTON      CLOUDY    36  32  85 W10G18    29.85R WCI  28
MARSHALL       CLOUDY    34  33  95 W10       29.92R WCI  26
MOUNT PLEASANT CLOUDY    33  32  96 SW7       29.84S WCI  27
MUSKEGON       CLOUDY    37  31  78 W14       29.90R WCI  28
SOUTH HAVEN    CLOUDY    38  34  85 W13G18    29.94S WCI  30
$$
MIZ016>042-051000-
NORTHERN LOWER MICHIGAN

CITY           SKY/WX    TMP DP  RH WIND       PRES   REMARKS
ALPENA         CLOUDY    32  30  92 SW6       29.79S WCI  26
BEAVER ISLAND  CLOUDY    36  33  90 W15       29.75R WCI  26
BELLAIRE       CLOUDY    34  33  96 S6        29.79S WCI  29
CADILLAC       CLOUDY    32  30  92 W8        29.79R WCI  25
CHARLEVOIX     CLOUDY    36  34  90 W18G24    29.78S WCI  26
FRANKFORT      CLOUDY    37  33  84 W10G18    29.81R WCI  30
GAYLORD        CLOUDY    33  29  85 W14       29.76R WCI  23
GRAYLING       CLOUDY    33  32  96 W5        29.79S WCI  28
HARBOR SPRINGS LGT SNOW  34  33  97 S9        29.75F WCI  26
HOUGHTON LAKE  CLOUDY    33  30  88 W13       29.80R WCI  24
MANISTEE       CLOUDY    36  32  85 W15       29.83R WCI  27
OSCODA         MOCLDY    32  31  98 MISG      29.80S
PELLSTON       LGT SNOW  32  30  92 SE5       29.75F VSB 1   WCI  27
ROGERS CITY    CLOUDY    32  31  96 CALM      29.78S FOG
TRAVERSE CITY  CLOUDY    35  32  88 S3        29.79R VSB 1
$$
MIZ007>008-015-051000-
EASTERN UPPER MICHIGAN

CITY           SKY/WX    TMP DP  RH WIND       PRES   REMARKS
KINROSS        LGT SNOW  32  31  96 S7        29.73F FOG     WCI  26
MACKINAC ISLAN FLURRIES  32  32 100 S7        29.73F WCI  26
NEWBERRY       LGT SNOW  32  32  99 SW7       29.71S WCI  26
S. S. MARIE    LGT SNOW  33  31  92 E3        29.72F FOG
MUNISING         N/A     32  30  92 SW7       29.71F WCI  26
$$
MIZ004>006-011>014-085-051000-
CENTRAL UPPER MICHIGAN

CITY           SKY/WX    TMP DP  RH WIND       PRES   REMARKS
MANISTIQUE     CLOUDY    32  31  94 W5        29.74S WCI  28
ESCANABA       CLOUDY    31  30  96 SW7       29.76R WCI  24
MENOMINEE      CLOUDY    32  31  96 W8        29.80R WCI  25
SAWYER-GWINN   CLOUDY    30  29  96 SW6       29.70S WCI  24
$$
MIZ001>003-009>011-084-051000-
WESTERN UPPER MICHIGAN

CITY           SKY/WX    TMP DP  RH WIND       PRES   REMARKS
IRON MOUNTAIN  CLOUDY    33  29  85 SW7       29.72R WCI  27
HOUGHTON       LGT SNOW  31  28  89 SW5       29.65S FOG     WCI  26
COPPER HARBOR    N/A     32  30  92 VRB3      29.66S
IRONWOOD       CLOUDY    33  28  81 SW13      29.72R WCI  24
$$

ABBREVIATIONS USED IN REMARKS
   TC - TEMPERATURE IN CELSIUS
  WCI - WIND CHILL INDEX
   HX - HEAT INDEX
  VSB - VISIBILITY




USA.gov is the U.S. government's official web portal to all federal, state and local government web resources and services.